DW2633 Weather Reports


time (UTC)temp
F
wind
direction
speed
knots
gust
knots
rain 1hr
in
rain 24hr
in
rain mn
in
humidity
%
barometer
mb
20260503215016 52 311 22.6 0.0 0.00 0.00 0.00 47 1007.5
20260503214517 52 308 20.0 0.0 0.00 0.00 0.00 44 1007.3
20260503214013 52 305 18.2 0.0 0.00 0.00 0.00 47 1007.3
20260503213513 53 296 19.1 0.0 0.00 0.00 0.00 47 1007.2
20260503213013 53 298 22.6 0.0 0.00 0.00 0.00 44 1007.1
20260503212513 53 281 23.5 0.0 0.00 0.00 0.00 47 1007.1
20260503212013 52 281 24.3 0.0 0.00 0.00 0.00 47 1007.0
20260503211513 53 276 24.3 0.0 0.00 0.00 0.00 45 1007.1
20260503211012 53 360 21.7 0.0 0.00 0.00 0.00 49 1006.9
20260503210512 53 277 19.1 0.0 0.00 0.00 0.00 46 1006.9
20260503210011 53 282 18.2 0.0 0.00 0.00 0.00 46 1007.0
20260503205511 53 285 16.5 0.0 0.00 0.00 0.00 45 1007.0
20260503205011 53 291 16.5 0.0 0.00 0.00 0.00 50 1007.2
20260503204509 53 270 15.6 0.0 0.00 0.00 0.00 49 1007.2
20260503204008 53 283 13.9 0.0 0.00 0.00 0.00 50 1007.3
20260503203511 52 296 16.5 0.0 0.00 0.00 0.00 48 1007.4
20260503203022 52 300 17.4 0.0 0.00 0.00 0.00 44 1007.3
20260503202508 53 300 14.8 0.0 0.00 0.00 0.00 50 1007.3
20260503202006 52 286 13.9 0.0 0.00 0.00 0.00 48 1007.3
20260503201506 52 293 13.0 0.0 0.00 0.00 0.00 46 1007.3
20260503201009 52 288 11.3 0.0 0.00 0.00 0.00 49 1007.3
20260503200504 51 285 9.6 0.0 0.00 0.00 0.00 45 1007.4
20260503200004 51 295 8.7 0.0 0.00 0.00 0.00 43 1007.5
20260503195503 51 305 9.6 0.0 0.00 0.00 0.00 44 1007.5
20260503195002 51 304 12.2 0.0 0.00 0.00 0.00 47 1007.5
20260503194501 51 290 15.6 0.0 0.00 0.00 0.00 49 1007.7
20260503194101 52 279 14.8 0.0 0.00 0.00 0.00 51 1007.8
20260503193559 51 279 13.9 0.0 0.00 0.00 0.00 54 1007.9
20260503193058 51 285 13.9 0.0 0.00 0.00 0.00 51 1008.1
20260503192556 50 300 14.8 0.0 0.00 0.00 0.00 54 1008.1
20260503192056 50 306 16.5 0.0 0.00 0.00 0.00 50 1008.3
20260503191557 50 287 13.9 0.0 0.00 0.00 0.00 52 1008.2
20260503191055 50 259 13.9 0.0 0.00 0.00 0.00 56 1008.4
20260503190553 50 305 13.9 0.0 0.00 0.00 0.00 47 1008.6
20260503190106 50 297 13.0 0.0 0.00 0.00 0.00 52 1008.6
20260503185553 50 272 13.9 0.0 0.00 0.00 0.00 55 1008.6
20260503185053 50 292 16.5 0.0 0.00 0.00 0.00 50 1008.6
20260503184552 50 284 16.5 0.0 0.00 0.00 0.00 55 1008.7
20260503184050 50 290 15.6 0.0 0.00 0.00 0.00 55 1008.7
20260503183548 50 271 13.9 0.0 0.00 0.00 0.00 58 1008.7
20260503183047 49 281 13.0 0.0 0.00 0.00 0.00 53 1008.7
20260503182548 48 272 14.8 0.0 0.00 0.00 0.00 52 1008.8
20260503182047 49 301 16.5 0.0 0.00 0.00 0.00 53 1008.8
20260503181554 48 302 15.6 0.0 0.00 0.00 0.00 55 1009.0
20260503181045 48 300 13.9 0.0 0.00 0.00 0.00 57 1008.9
20260503180544 48 288 13.9 0.0 0.00 0.00 0.00 51 1008.9
20260503180051 48 288 13.9 0.0 0.00 0.00 0.00 59 1009.0
20260503175544 48 325 13.9 0.0 0.00 0.00 0.00 59 1009.0
20260503175043 48 290 11.3 0.0 0.00 0.00 0.00 56 1009.0
20260503174542 48 298 12.2 0.0 0.00 0.00 0.00 51 1009.0
20260503174042 48 293 15.6 0.0 0.00 0.00 0.00 51 1009.1
20260503173541 47 283 13.9 0.0 0.00 0.00 0.00 56 1009.1
20260503173040 47 294 8.7 0.0 0.00 0.00 0.00 58 1009.0
20260503172539 47 300 7.8 0.0 0.00 0.00 0.00 52 1009.1
20260503172039 47 317 8.7 0.0 0.00 0.00 0.00 55 1009.2
20260503171538 47 309 11.3 0.0 0.00 0.00 0.00 51 1009.3
20260503171038 47 288 13.9 0.0 0.00 0.00 0.00 51 1009.3
20260503170538 47 315 13.9 0.0 0.00 0.00 0.00 61 1009.3
20260503150529 45 355 11.3 0.0 0.00 0.00 0.00 57 1010.0
20260503131021 44 344 11.3 0.0 0.00 0.00 0.00 64 1010.3
20260503130520 44 302 11.3 0.0 0.00 0.00 0.00 67 1010.2
20260503110509 40 14 5.2 0.0 0.00 0.00 0.00 73 1010.0
20260503090501 38 95 1.7 0.0 0.00 0.00 0.00 78 1009.7
20260503081600 38 119 1.7 0.0 0.00 0.00 0.00 77 1009.9
20260503081055 38 119 2.6 0.0 0.00 0.00 0.00 77 1009.9
20260503080554 38 123 2.6 0.0 0.00 0.00 0.00 78 1010.0
20260503072552 39 326 0.9 0.0 0.00 0.00 0.00 75 1010.1
20260503072052 39 93 1.7 0.0 0.00 0.00 0.00 75 1010.1
20260503071551 39 68 2.6 0.0 0.00 0.00 0.00 75 1010.2
20260503071051 39 99 2.6 0.0 0.00 0.00 0.00 75 1010.2
20260503070553 39 44 2.6 0.0 0.00 0.00 0.00 76 1010.2
20260503060109 39 319 5.2 0.0 0.00 0.00 0.00 73 1010.6
20260503055044 39 336 6.1 0.0 0.00 0.00 0.00 73 1010.6
20260503054559 39 322 6.1 0.0 0.00 0.00 0.00 73 1010.6
20260503054043 40 333 6.1 0.0 0.00 0.00 0.00 75 1010.7
20260503053541 40 355 6.1 0.0 0.00 0.00 0.00 72 1010.7
20260503053043 40 335 7.0 0.0 0.00 0.00 0.00 71 1010.8
20260503052544 40 313 7.8 0.0 0.00 0.00 0.00 72 1010.8
20260503052042 40 292 7.8 0.0 0.00 0.00 0.00 71 1010.7
20260503051538 40 296 8.7 0.0 0.00 0.00 0.00 71 1010.8
20260503051037 40 321 8.7 0.0 0.00 0.00 0.00 71 1010.9
20260503050536 40 304 9.6 0.0 0.00 0.00 0.00 72 1010.9
20260503050038 41 316 9.6 0.0 0.00 0.00 0.00 71 1010.9
20260503045535 41 315 9.6 0.0 0.00 0.00 0.00 70 1010.9
20260503045032 41 299 9.6 0.0 0.00 0.00 0.00 68 1011.0
20260503044532 41 299 8.7 0.0 0.00 0.00 0.00 70 1010.9
20260503044031 41 309 8.7 0.0 0.00 0.00 0.00 69 1011.0
20260503043531 41 331 8.7 0.0 0.00 0.00 0.00 69 1011.0
20260503043030 41 315 8.7 0.0 0.00 0.00 0.00 69 1011.1
20260503042529 41 314 7.8 0.0 0.00 0.00 0.00 69 1011.2
20260503042029 41 328 8.7 0.0 0.00 0.00 0.00 67 1011.1
20260503041528 41 340 8.7 0.0 0.00 0.00 0.00 68 1011.2
20260503041031 41 334 8.7 0.0 0.00 0.00 0.00 67 1011.3
20260503040526 42 317 9.6 0.0 0.00 0.00 0.00 69 1011.3
20260503040034 42 325 9.6 0.0 0.00 0.00 0.00 68 1011.3
20260503035526 42 323 9.6 0.0 0.00 0.00 0.00 65 1011.3
20260503035025 42 329 10.4 0.0 0.00 0.00 0.00 66 1011.3
20260503034526 42 343 11.3 0.0 0.00 0.00 0.00 67 1011.3
20260503034025 43 313 12.2 0.0 0.00 0.00 0.00 66 1011.3
20260503033525 43 324 13.0 0.0 0.00 0.00 0.00 69 1011.3
20260503033029 43 313 13.0 0.0 0.00 0.00 0.00 68 1011.3
20260503032524 42 296 12.2 0.0 0.00 0.00 0.00 67 1011.3
20260503032024 43 298 12.2 0.0 0.00 0.00 0.00 67 1011.3
20260503031524 43 279 12.2 0.0 0.00 0.00 0.00 69 1011.3
20260503031024 43 278 12.2 0.0 0.00 0.00 0.00 68 1011.2
20260503030524 43 287 12.2 0.0 0.00 0.00 0.00 67 1011.2
20260503030026 43 277 12.2 0.0 0.00 0.00 0.00 67 1011.3
20260503025523 43 273 12.2 0.0 0.00 0.00 0.00 69 1011.2
20260503025023 43 265 11.3 0.0 0.00 0.00 0.00 67 1011.2
20260503024523 43 262 11.3 0.0 0.00 0.00 0.00 67 1011.2
20260503024023 43 253 11.3 0.0 0.00 0.00 0.00 67 1011.2
20260503023522 43 257 11.3 0.0 0.00 0.00 0.00 67 1011.2
20260503023023 43 253 11.3 0.0 0.00 0.00 0.00 67 1011.2
20260503022522 43 264 11.3 0.0 0.00 0.00 0.00 68 1011.2
20260503022022 43 261 11.3 0.0 0.00 0.00 0.00 67 1011.2
20260503021522 43 251 10.4 0.0 0.00 0.00 0.00 67 1011.2
20260503021022 43 257 10.4 0.0 0.00 0.00 0.00 66 1011.3
20260503020522 43 255 9.6 0.0 0.00 0.00 0.00 66 1011.5
20260503020022 43 257 9.6 0.0 0.00 0.00 0.00 68 1011.5
20260503015521 44 267 10.4 0.0 0.00 0.00 0.00 66 1011.5
20260503015025 44 262 10.4 0.0 0.00 0.00 0.00 66 1011.5
20260503014524 44 258 10.4 0.0 0.00 0.00 0.00 65 1011.5
20260503014021 44 254 9.6 0.0 0.00 0.00 0.00 64 1011.5
20260503013521 44 259 10.4 0.0 0.00 0.00 0.00 65 1011.5
20260503013022 44 274 11.3 0.0 0.00 0.00 0.00 65 1011.5
20260503012522 44 279 11.3 0.0 0.00 0.00 0.00 67 1011.5
20260503012021 44 265 11.3 0.0 0.00 0.00 0.00 66 1011.5
20260503011523 44 272 10.4 0.0 0.00 0.00 0.00 66 1011.5
20260503011021 44 260 9.6 0.0 0.00 0.00 0.00 66 1011.6
20260503010522 44 286 10.4 0.0 0.00 0.00 0.00 64 1011.6
20260503010027 44 305 10.4 0.0 0.00 0.00 0.00 61 1011.5
20260503005520 44 277 11.3 0.0 0.00 0.00 0.00 66 1011.3
20260503005018 44 287 11.3 0.0 0.00 0.00 0.00 63 1011.4
20260503004519 44 306 11.3 0.0 0.00 0.00 0.00 65 1011.4
20260503004019 44 302 12.2 0.0 0.00 0.00 0.00 63 1011.3
20260503003516 44 284 12.2 0.0 0.00 0.00 0.00 67 1011.2
20260503003016 44 277 12.2 0.0 0.00 0.00 0.00 67 1011.1
20260503002519 44 263 12.2 0.0 0.00 0.00 0.00 68 1011.1
20260503002019 44 271 13.0 0.0 0.00 0.00 0.00 67 1011.1
20260503001516 44 266 12.2 0.0 0.00 0.00 0.00 67 1011.1
20260503001016 44 274 12.2 0.0 0.00 0.00 0.00 65 1011.0
20260503000515 44 271 12.2 0.0 0.00 0.00 0.00 65 1011.0
20260503000016 44 273 13.0 0.0 0.00 0.00 0.00 64 1011.0
20260502235515 45 260 13.9 0.0 0.00 0.00 0.00 67 1011.0
20260502235015 45 255 16.5 0.0 0.00 0.00 0.00 64 1011.0
20260502234523 45 253 17.4 0.0 0.00 0.00 0.00 66 1011.0
20260502234017 45 272 16.5 0.0 0.00 0.00 0.00 66 1010.9
20260502233515 45 274 14.8 0.0 0.00 0.00 0.00 68 1010.9
20260502233015 45 306 14.8 0.0 0.00 0.00 0.00 62 1010.9
20260502232514 45 288 14.8 0.0 0.00 0.00 0.00 63 1010.9
20260502232014 46 297 13.9 0.0 0.00 0.00 0.00 64 1010.8
20260502231514 46 284 13.0 0.0 0.00 0.00 0.00 65 1010.8
20260502231014 46 284 13.9 0.0 0.00 0.00 0.00 62 1010.8
20260502230514 46 291 14.8 0.0 0.00 0.00 0.00 62 1010.9
20260502230014 46 276 15.6 0.0 0.00 0.00 0.00 63 1010.8
20260502225517 46 287 17.4 0.0 0.00 0.00 0.00 62 1010.8
20260502225013 46 274 16.5 0.0 0.00 0.00 0.00 62 1010.8
20260502224513 47 291 15.6 0.0 0.00 0.00 0.00 59 1010.8
20260502224013 47 276 15.6 0.0 0.00 0.00 0.00 60 1010.7
20260502223515 47 266 15.6 0.0 0.00 0.00 0.00 62 1010.7
20260502223013 47 292 16.5 0.0 0.00 0.00 0.00 61 1010.7
20260502222513 47 279 16.5 0.0 0.00 0.00 0.00 61 1010.7
20260502222012 47 274 16.5 0.0 0.00 0.00 0.00 59 1010.6
20260502221512 47 282 16.5 0.0 0.00 0.00 0.00 62 1010.6
20260502221012 47 284 15.6 0.0 0.00 0.00 0.00 62 1010.5
20260502220512 47 285 15.6 0.0 0.00 0.00 0.00 61 1010.5
20260502220014 48 280 17.4 0.0 0.00 0.00 0.00 61 1010.5
20260502215511 48 280 16.5 0.0 0.00 0.00 0.00 60 1010.5